FW8892 Weather Reports


Display with metric or nautical units.
time (UTC)temp
F
wind
direction
speed
MPH
gust
MPH
rain 1hr
in
rain 24hr
in
rain mn
in
humidity
%
barometer
mb
20260903231029 94 0 0.0 3.0 0.00 0.00 0.00 54 1014.5
20260903230529 94 16 0.0 3.0 0.00 0.00 0.00 53 1014.5
20260903230106 94 0 1.0 3.0 0.00 0.00 0.00 52 1014.5
20260903225531 95 17 0.0 4.0 0.00 0.00 0.00 53 1014.5
20260903225030 95 0 0.0 4.0 0.00 0.00 0.00 52 1014.4
20260903224557 95 21 1.0 4.0 0.00 0.00 0.00 52 1014.4
20260903224031 95 11 1.0 3.0 0.00 0.00 0.00 51 1014.5
20260903223530 95 5 1.0 3.0 0.00 0.00 0.00 49 1014.6
20260903223048 96 30 1.0 3.0 0.00 0.00 0.00 50 1014.5
20260903222529 96 338 0.0 3.0 0.00 0.00 0.00 49 1014.6
20260903222029 96 63 1.0 3.0 0.00 0.00 0.00 49 1014.6
20260903221547 96 0 0.0 3.0 0.00 0.00 0.00 47 1014.6
20260903221031 96 257 0.0 3.0 0.00 0.00 0.00 49 1014.7
20260903220529 97 275 0.0 3.0 0.00 0.00 0.00 49 1014.6
20260903220106 97 347 1.0 4.0 0.00 0.00 0.00 48 1014.7
20260903215528 97 5 1.0 4.0 0.00 0.00 0.00 48 1014.7
20260903215031 97 221 1.0 4.0 0.00 0.00 0.00 49 1014.7
20260903214554 98 0 1.0 4.0 0.00 0.00 0.00 50 1014.7
20260903214029 98 15 1.0 4.0 0.00 0.00 0.00 46 1014.7
20260903213528 99 0 1.0 3.0 0.00 0.00 0.00 46 1014.8
20260903213100 99 313 0.0 2.0 0.00 0.00 0.00 44 1014.8
20260903212529 100 0 0.0 4.0 0.00 0.00 0.00 43 1014.8
20260903212029 101 0 1.0 4.0 0.00 0.00 0.00 44 1014.8
20260903211558 101 225 1.0 4.0 0.00 0.00 0.00 44 1014.9
20260903211028 101 211 1.0 4.0 0.00 0.00 0.00 46 1015.0
20260903210529 102 213 1.0 3.0 0.00 0.00 0.00 43 1015.0
20260903210054 102 277 0.0 5.0 0.00 0.00 0.00 45 1015.1
20260903205529 101 180 1.0 6.0 0.00 0.00 0.00 45 1015.2
20260903205028 101 186 2.0 6.0 0.00 0.00 0.00 46 1015.2
20260903204550 101 164 1.0 6.0 0.00 0.00 0.00 45 1015.2
20260903204029 100 228 2.0 6.0 0.00 0.00 0.00 45 1015.2
20260903203529 100 126 1.0 5.0 0.00 0.00 0.00 45 1015.2
20260903203049 99 244 0.0 3.0 0.00 0.00 0.00 49 1015.3
20260903202529 99 0 0.0 4.0 0.00 0.00 0.00 46 1015.3
20260903202030 98 350 1.0 4.0 0.00 0.00 0.00 48 1015.4
20260903201558 98 21 1.0 4.0 0.00 0.00 0.00 48 1015.4
20260903201028 99 5 0.0 4.0 0.00 0.00 0.00 47 1015.4
20260903200529 99 0 2.0 4.0 0.00 0.00 0.00 45 1015.4
20260903200056 100 93 2.0 6.0 0.00 0.00 0.00 43 1015.6
20260903195529 101 151 2.0 6.0 0.00 0.00 0.00 44 1015.5
20260903195028 101 164 2.0 9.0 0.00 0.00 0.00 44 1015.6
20260903194554 101 254 2.0 11.0 0.00 0.00 0.00 45 1015.6
20260903194028 100 162 5.0 11.0 0.00 0.00 0.00 45 1015.6
20260903193529 101 197 3.0 8.0 0.00 0.00 0.00 46 1015.7
20260903193106 101 200 2.0 5.0 0.00 0.00 0.00 46 1015.7
20260903192528 101 282 2.0 5.0 0.00 0.00 0.00 45 1016.0
20260903192028 101 209 1.0 8.0 0.00 0.00 0.00 47 1016.0
20260903191605 100 249 1.0 8.0 0.00 0.00 0.00 50 1016.1
20260903191030 100 312 1.0 3.0 0.00 0.00 0.00 49 1016.0
20260903190528 101 304 1.0 3.0 0.00 0.00 0.00 46 1016.0
20260903190055 100 249 1.0 4.0 0.00 0.00 0.00 49 1016.1
20260903185530 100 243 1.0 5.0 0.00 0.00 0.00 47 1016.1
20260903185030 100 281 1.0 7.0 0.00 0.00 0.00 48 1016.2
20260903184558 99 124 2.0 7.0 0.00 0.00 0.00 47 1016.2
20260903184029 100 91 2.0 6.0 0.00 0.00 0.00 49 1016.3
20260903183530 100 0 2.0 5.0 0.00 0.00 0.00 47 1016.4
20260903183057 99 197 1.0 4.0 0.00 0.00 0.00 52 1016.3
20260903182529 99 271 1.0 4.0 0.00 0.00 0.00 51 1016.4
20260903182030 99 0 0.0 4.0 0.00 0.00 0.00 51 1016.4
20260903181606 99 0 1.0 4.0 0.00 0.00 0.00 51 1016.5
20260903181030 99 201 1.0 4.0 0.00 0.00 0.00 49 1016.5
20260903180531 99 274 0.0 4.0 0.00 0.00 0.00 51 1016.7
20260903180104 99 0 1.0 4.0 0.00 0.00 0.00 49 1016.7
20260903175528 98 244 1.0 7.0 0.00 0.00 0.00 50 1016.8
20260903175028 98 232 1.0 7.0 0.00 0.00 0.00 52 1016.8
20260903174610 98 234 3.0 7.0 0.00 0.00 0.00 51 1016.8
20260903174028 97 311 2.0 5.0 0.00 0.00 0.00 52 1017.0
20260903173528 97 340 1.0 3.0 0.00 0.00 0.00 52 1017.1
20260903173057 97 336 0.0 2.0 0.00 0.00 0.00 55 1017.1
20260903172529 97 215 0.0 3.0 0.00 0.00 0.00 54 1017.2
20260903172030 97 0 0.0 3.0 0.00 0.00 0.00 50 1017.4
20260903171557 97 193 0.0 2.0 0.00 0.00 0.00 50 1017.4
20260903171030 98 0 0.0 4.0 0.00 0.00 0.00 48 1017.3
20260903170529 98 226 1.0 4.0 0.00 0.00 0.00 50 1017.3
20260903170213 98 330 1.0 4.0 0.00 0.00 0.00 52 1017.4
20260903165529 98 250 1.0 6.0 0.00 0.00 0.00 50 1017.4
20260903165030 99 213 2.0 7.0 0.00 0.00 0.00 51 1017.4
20260903164557 98 202 2.0 7.0 0.00 0.00 0.00 49 1017.5
20260903164029 98 180 2.0 7.0 0.00 0.00 0.00 50 1017.6
20260903163531 99 123 1.0 6.0 0.00 0.00 0.00 48 1017.7
20260903163049 100 180 2.0 6.0 0.00 0.00 0.00 51 1017.7
20260903162529 99 0 1.0 3.0 0.00 0.00 0.00 50 1017.6
20260903162029 98 215 0.0 4.0 0.00 0.00 0.00 55 1017.7
20260903161623 97 252 1.0 4.0 0.00 0.00 0.00 54 1017.8
20260903161025 97 265 2.0 4.0 0.00 0.00 0.00 55 1017.9
20260903160529 96 68 1.0 4.0 0.00 0.00 0.00 54 1017.8
20260903160058 97 226 2.0 5.0 0.00 0.00 0.00 53 1017.9
20260903155527 97 67 1.0 5.0 0.00 0.00 0.00 53 1018.0
20260903155025 98 316 1.0 5.0 0.00 0.00 0.00 54 1018.0
20260903154556 98 259 1.0 5.0 0.00 0.00 0.00 57 1018.0
20260903154028 98 0 1.0 6.0 0.00 0.00 0.00 53 1018.0
20260903153529 98 175 3.0 6.0 0.00 0.00 0.00 54 1018.1
20260903153059 97 127 1.0 6.0 0.00 0.00 0.00 54 1018.0
20260903152531 97 217 2.0 8.0 0.00 0.00 0.00 54 1018.0
20260903152029 97 203 3.0 8.0 0.00 0.00 0.00 55 1018.0
20260903151559 96 0 1.0 3.0 0.00 0.00 0.00 54 1017.9
20260903151032 96 0 1.0 4.0 0.00 0.00 0.00 59 1017.9
20260903150529 96 0 1.0 4.0 0.00 0.00 0.00 57 1017.9
20260903150058 96 0 2.0 4.0 0.00 0.00 0.00 56 1018.1
20260903145528 95 144 1.0 4.0 0.00 0.00 0.00 58 1018.1
20260903145028 95 190 2.0 3.0 0.00 0.00 0.00 58 1018.0
20260903144548 94 217 1.0 3.0 0.00 0.00 0.00 59 1018.0
20260903144027 94 44 1.0 3.0 0.00 0.00 0.00 62 1018.0
20260903143529 94 149 1.0 2.0 0.00 0.00 0.00 61 1018.0
20260903143051 93 171 1.0 2.0 0.00 0.00 0.00 63 1017.9
20260903142529 92 0 1.0 3.0 0.00 0.00 0.00 63 1017.9
20260903142028 92 78 0.0 3.0 0.00 0.00 0.00 64 1018.0
20260903141558 92 103 1.0 3.0 0.00 0.00 0.00 66 1017.9
20260903141028 91 208 0.0 3.0 0.00 0.00 0.00 67 1018.0
20260903140528 91 202 0.0 2.0 0.00 0.00 0.00 69 1018.1
20260903135528 90 171 0.0 2.0 0.00 0.00 0.00 71 1018.1
20260903135027 89 209 1.0 2.0 0.00 0.00 0.00 74 1018.1
20260903134553 88 188 1.0 4.0 0.00 0.00 0.00 74 1018.2
20260903134028 87 208 1.0 4.0 0.00 0.00 0.00 75 1018.3
20260903133526 87 125 1.0 4.0 0.00 0.00 0.00 76 1018.3
20260903133059 86 110 1.0 4.0 0.00 0.00 0.00 76 1018.3
20260903132528 86 133 1.0 4.0 0.00 0.00 0.00 76 1018.3
20260903132028 85 172 0.0 4.0 0.00 0.00 0.00 77 1018.3
20260903131607 84 165 1.0 5.0 0.00 0.00 0.00 78 1018.3
20260903131120 84 143 1.0 5.0 0.00 0.00 0.00 78 1018.5
20260903130528 83 0 0.0 2.0 0.00 0.00 0.00 79 1018.4
20260903130100 82 0 0.0 0.0 0.00 0.00 0.00 83 1018.3
20260903125530 81 0 0.0 0.0 0.00 0.00 0.00 85 1018.4
20260903125029 79 0 0.0 0.0 0.00 0.00 0.00 87 1018.3
20260903124549 78 0 0.0 0.0 0.00 0.00 0.00 89 1018.3
20260903124028 77 0 0.0 0.0 0.00 0.00 0.00 90 1018.3
20260903123527 76 0 0.0 0.0 0.00 0.00 0.00 93 1018.2
20260903123058 75 0 0.0 0.0 0.00 0.00 0.00 94 1018.2
20260903122528 74 0 0.0 0.0 0.00 0.00 0.00 97 1018.2
20260903122030 74 0 0.0 0.0 0.00 0.00 0.00 98 1018.2
20260903121557 73 0 0.0 0.0 0.00 0.00 0.00 98 1018.2
20260903121028 73 0 0.0 0.0 0.00 0.00 0.00 99 1018.2
20260903120528 72 0 0.0 0.0 0.00 0.00 0.00 98 1018.1
20260903120055 72 0 0.0 0.0 0.00 0.00 0.00 98 1018.1
20260903115533 71 0 0.0 0.0 0.00 0.00 0.00 97 1018.2
20260903115030 71 0 0.0 0.0 0.00 0.00 0.00 97 1018.1
20260903114608 71 0 0.0 0.0 0.00 0.00 0.00 97 1017.9
20260903114028 71 0 0.0 0.0 0.00 0.00 0.00 97 1017.9
20260903113529 71 0 0.0 0.0 0.00 0.00 0.00 97 1017.8
20260903113107 71 0 0.0 0.0 0.00 0.00 0.00 97 1017.8
20260903112533 71 0 0.0 0.0 0.00 0.00 0.00 97 1017.7
20260903112029 71 0 0.0 0.0 0.00 0.00 0.00 97 1017.6
20260903111557 71 0 0.0 0.0 0.00 0.00 0.00 96 1017.7
20260903111029 71 0 0.0 0.0 0.00 0.00 0.00 96 1017.5
20260903110530 71 0 0.0 0.0 0.00 0.00 0.00 96 1017.5
20260903110054 71 0 0.0 0.0 0.00 0.00 0.00 96 1017.4
20260903105530 71 0 0.0 0.0 0.00 0.00 0.00 97 1017.3
20260903105029 71 0 0.0 0.0 0.00 0.00 0.00 97 1017.3
20260903104605 71 0 0.0 0.0 0.00 0.00 0.00 97 1017.2
20260903104029 71 0 0.0 0.0 0.00 0.00 0.00 97 1017.3
20260903103529 71 0 0.0 0.0 0.00 0.00 0.00 96 1017.2
20260903103057 71 0 0.0 0.0 0.00 0.00 0.00 96 1017.2
20260903102531 71 0 0.0 0.0 0.00 0.00 0.00 96 1017.2
20260903102028 71 0 0.0 0.0 0.00 0.00 0.00 96 1017.1
20260903101556 72 0 0.0 0.0 0.00 0.00 0.00 96 1017.0
20260903101029 72 0 0.0 0.0 0.00 0.00 0.00 96 1017.0
20260903100527 72 0 0.0 0.0 0.00 0.00 0.00 96 1017.0
20260903100051 72 0 0.0 0.0 0.00 0.00 0.00 96 1017.0
20260903095527 72 0 0.0 0.0 0.00 0.00 0.00 97 1017.0
20260903095026 72 0 0.0 0.0 0.00 0.00 0.00 97 1016.9
20260903094549 72 0 0.0 0.0 0.00 0.00 0.00 96 1017.0
20260903094027 72 0 0.0 0.0 0.00 0.00 0.00 96 1016.9
20260903093529 72 0 0.0 0.0 0.00 0.00 0.00 96 1016.9
20260903093102 72 0 0.0 0.0 0.00 0.00 0.00 96 1016.8
20260903092528 72 0 0.0 0.0 0.00 0.00 0.00 96 1016.9
20260903092027 72 0 0.0 0.0 0.00 0.00 0.00 96 1016.9
20260903091556 72 0 0.0 0.0 0.00 0.00 0.00 96 1016.8
20260903091028 72 0 0.0 0.0 0.00 0.00 0.00 95 1017.0
20260903090533 72 0 0.0 0.0 0.00 0.00 0.00 95 1016.8
20260903090050 72 0 0.0 0.0 0.00 0.00 0.00 95 1017.0
20260903085528 72 0 0.0 0.0 0.00 0.00 0.00 96 1016.9
20260903085028 72 0 0.0 0.0 0.00 0.00 0.00 95 1016.9
20260903084546 73 0 0.0 0.0 0.00 0.00 0.00 95 1016.9
20260903084028 73 0 0.0 0.0 0.00 0.00 0.00 96 1017.0
20260903083529 73 0 0.0 0.0 0.00 0.00 0.00 96 1016.9
20260903083053 73 0 0.0 0.0 0.00 0.00 0.00 96 1016.9
20260903082528 73 0 0.0 0.0 0.00 0.00 0.00 96 1016.8
20260903082029 73 0 0.0 0.0 0.00 0.00 0.00 95 1016.9
20260903081557 73 0 0.0 0.0 0.00 0.00 0.00 95 1016.9
20260903081029 73 0 0.0 0.0 0.00 0.00 0.00 95 1016.8
20260903080529 73 0 0.0 0.0 0.00 0.00 0.00 95 1016.9
20260903080046 73 0 0.0 0.0 0.00 0.00 0.00 95 1016.8
20260903075529 73 0 0.0 0.0 0.00 0.00 0.00 95 1016.7
20260903075031 73 0 0.0 0.0 0.00 0.00 0.00 95 1016.8
20260903074600 73 0 0.0 0.0 0.00 0.00 0.00 95 1016.8
20260903074031 73 0 0.0 0.0 0.00 0.00 0.00 95 1016.7
20260903073528 73 0 0.0 0.0 0.00 0.00 0.00 95 1016.7
20260903073059 73 0 0.0 0.0 0.00 0.00 0.00 95 1016.7
20260903072528 73 0 0.0 0.0 0.00 0.00 0.00 95 1016.7
20260903072027 73 0 0.0 0.0 0.00 0.00 0.00 95 1016.7
20260903071548 73 0 0.0 0.0 0.00 0.00 0.00 95 1016.7
20260903071028 73 0 0.0 0.0 0.00 0.00 0.00 94 1016.7
20260903070528 74 0 0.0 0.0 0.00 0.00 0.00 95 1016.7
20260903070134 74 0 0.0 0.0 0.00 0.00 0.00 94 1016.7
20260903065529 74 0 0.0 0.0 0.00 0.00 0.00 94 1016.7
20260903065027 74 0 0.0 0.0 0.00 0.00 0.00 94 1016.8
20260903064553 74 0 0.0 0.0 0.00 0.00 0.00 93 1016.8
20260903064030 74 0 0.0 0.0 0.00 0.00 0.00 93 1016.8
20260903063529 74 0 0.0 0.0 0.00 0.00 0.00 93 1016.9
20260903063057 74 0 0.0 0.0 0.00 0.00 0.00 94 1017.0
20260903062530 74 0 0.0 0.0 0.00 0.00 0.00 94 1017.0
20260903062031 74 0 0.0 0.0 0.00 0.00 0.00 93 1017.0
20260903061554 74 0 0.0 0.0 0.00 0.00 0.00 93 1016.9
20260903061031 74 0 0.0 0.0 0.00 0.00 0.00 93 1017.0
20260903060529 74 0 0.0 0.0 0.00 0.00 0.00 93 1016.8
20260903060054 74 0 0.0 0.0 0.00 0.00 0.00 93 1016.9
20260903055531 74 0 0.0 0.0 0.00 0.00 0.00 93 1016.9
20260903055030 75 0 0.0 0.0 0.00 0.00 0.00 93 1017.0
20260903054558 75 0 0.0 0.0 0.00 0.00 0.00 93 1017.0
20260903054028 75 0 0.0 0.0 0.00 0.00 0.00 93 1017.0
20260903053532 75 0 0.0 0.0 0.00 0.00 0.00 93 1017.0
20260903053101 75 0 0.0 0.0 0.00 0.00 0.00 92 1017.0
20260903052531 75 0 0.0 0.0 0.00 0.00 0.00 92 1017.0
20260903052035 75 0 0.0 0.0 0.00 0.00 0.00 92 1017.0
20260903051557 75 0 0.0 0.0 0.00 0.00 0.00 92 1017.0
20260903051034 75 0 0.0 0.0 0.00 0.00 0.00 92 1016.9
20260903050531 75 0 0.0 0.0 0.00 0.00 0.00 92 1016.9
20260903045532 75 0 0.0 0.0 0.00 0.00 0.00 92 1016.8
20260903045031 75 0 0.0 0.0 0.00 0.00 0.00 91 1016.8
20260903044601 75 0 0.0 0.0 0.00 0.00 0.00 91 1016.7
20260903044030 76 0 0.0 0.0 0.00 0.00 0.00 91 1016.8
20260903043530 76 0 0.0 0.0 0.00 0.00 0.00 91 1016.8
20260903043058 76 0 0.0 0.0 0.00 0.00 0.00 91 1016.7
20260903042530 76 0 0.0 0.0 0.00 0.00 0.00 91 1016.8
20260903042030 76 0 0.0 0.0 0.00 0.00 0.00 91 1016.8
20260903041553 76 0 0.0 0.0 0.00 0.00 0.00 90 1016.8
20260903041028 76 0 0.0 0.0 0.00 0.00 0.00 90 1017.0
20260903040532 76 0 0.0 0.0 0.00 0.00 0.00 90 1016.9
20260903035529 76 0 0.0 0.0 0.00 0.00 0.00 89 1016.8
20260903035028 76 0 0.0 0.0 0.00 0.00 0.00 89 1017.0
20260903034559 77 0 0.0 0.0 0.00 0.00 0.00 89 1016.9
20260903034027 77 0 0.0 0.0 0.00 0.00 0.00 89 1016.8
20260903033529 77 0 0.0 0.0 0.00 0.00 0.00 88 1016.8
20260903033055 77 0 0.0 0.0 0.00 0.00 0.00 88 1016.8
20260903032532 77 0 0.0 0.0 0.00 0.00 0.00 88 1016.7
20260903032030 77 0 0.0 0.0 0.00 0.00 0.00 87 1016.8
20260903031549 77 0 0.0 0.0 0.00 0.00 0.00 87 1016.8
20260903031028 78 0 0.0 0.0 0.00 0.00 0.00 87 1017.0
20260903030529 78 0 0.0 0.0 0.00 0.00 0.00 87 1017.0
20260903030050 78 0 0.0 0.0 0.00 0.00 0.00 87 1017.0
20260903025533 78 0 0.0 0.0 0.00 0.00 0.00 87 1016.9
20260903025028 78 0 0.0 0.0 0.00 0.00 0.00 86 1016.9
20260903024558 78 0 0.0 0.0 0.00 0.00 0.00 86 1016.8
20260903024028 78 0 0.0 0.0 0.00 0.00 0.00 86 1016.9
20260903023528 78 0 0.0 0.0 0.00 0.00 0.00 85 1017.0
20260903023056 79 0 0.0 0.0 0.00 0.00 0.00 84 1017.0
20260903022527 79 0 0.0 0.0 0.00 0.00 0.00 85 1016.9
20260903022029 79 0 0.0 0.0 0.00 0.00 0.00 83 1016.9
20260903021550 79 0 0.0 0.0 0.00 0.00 0.00 84 1016.8
20260903021033 79 0 0.0 0.0 0.00 0.00 0.00 82 1016.9
20260903020532 79 0 0.0 0.0 0.00 0.00 0.00 82 1016.9
20260903020100 80 0 0.0 0.0 0.00 0.00 0.00 82 1016.8
20260903015529 80 0 0.0 0.0 0.00 0.00 0.00 81 1016.8
20260903015028 80 0 0.0 0.0 0.00 0.00 0.00 80 1016.8
20260903014610 80 0 0.0 0.0 0.00 0.00 0.00 80 1016.8
20260903014028 81 0 0.0 0.0 0.00 0.00 0.00 80 1016.7
20260903013527 81 0 0.0 0.0 0.00 0.00 0.00 80 1016.7
20260903013055 81 0 0.0 0.0 0.00 0.00 0.00 79 1016.7
20260903012529 82 0 0.0 0.0 0.00 0.00 0.00 79 1016.6
20260903012029 82 0 0.0 0.0 0.00 0.00 0.00 79 1016.5
20260903011549 82 0 0.0 0.0 0.00 0.00 0.00 78 1016.5
20260903011028 82 0 0.0 0.0 0.00 0.00 0.00 78 1016.4
20260903010528 83 0 0.0 0.0 0.00 0.00 0.00 77 1016.5
20260903010058 83 0 0.0 0.0 0.00 0.00 0.00 76 1016.4
20260903005529 84 0 0.0 0.0 0.00 0.00 0.00 75 1016.4
20260903005029 84 0 0.0 0.0 0.00 0.00 0.00 74 1016.4
20260903004557 85 0 0.0 0.0 0.00 0.00 0.00 73 1016.5
20260903004027 85 0 0.0 0.0 0.00 0.00 0.00 72 1016.6
20260903003528 86 0 0.0 0.0 0.00 0.00 0.00 71 1016.5
20260903003048 86 0 0.0 0.0 0.00 0.00 0.00 71 1016.5
20260903002531 87 0 0.0 0.0 0.00 0.00 0.00 70 1016.6
20260903002029 87 0 0.0 0.0 0.00 0.00 0.00 69 1016.6
20260903001549 88 0 0.0 0.0 0.00 0.00 0.00 68 1016.5
20260903001029 88 0 0.0 0.0 0.00 0.00 0.00 67 1016.6
20260903000530 89 0 0.0 0.0 0.00 0.00 0.00 66 1016.5
20260903000058 89 0 0.0 1.0 0.00 0.00 0.00 65 1016.6
20260902235530 90 0 0.0 1.0 0.00 0.00 0.00 63 1016.7
20260902235029 90 0 0.0 1.0 0.00 0.00 0.00 62 1016.7
20260902234600 90 0 0.0 1.0 0.00 0.00 0.00 60 1016.7
20260902234027 91 0 0.0 2.0 0.00 0.00 0.00 59 1016.7
20260902233530 91 0 0.0 2.0 0.00 0.00 0.00 59 1016.7
20260902233048 91 0 0.0 2.0 0.00 0.00 0.00 59 1016.8
20260902232534 92 0 0.0 2.0 0.00 0.00 0.00 59 1016.6
20260902232027 92 0 0.0 2.0 0.00 0.00 0.00 57 1016.7
20260902231549 92 0 0.0 2.0 0.00 0.00 0.00 57 1016.7